Location: Dugenta
(41.1333°N, 14.4500°E)
Time: 14:23:53
(UTC+00:00)

Cosmos 2278 Rocket - Pass Details

Date: 03 March 2021
Orbit: 842 x 845 km, 71.0° (Epoch: 20 April)

Event Time Altitude Azimuth Distance (km) Brightness Sun altitude
Rises 18:41:48 0° 347° (NNW) 3,412 5.7 -20.8°
Reaches altitude 10° 18:44:51 10° 2° (N) 2,473 4.7 -21.3°
Enters shadow 18:48:20 21° 39° (NE) 1,810 3.6 -22.0°
